Tracking 28126 objects as of 2-Oct-2023
HD Live streaming from Space Station
objects crossing your sky now

STARLINK-4353

Track STARLINK-4353 now!
10-day predictions
STARLINK-4353 is classified as:


NORAD ID: 53214
Int'l Code: 2022-084AB
Perigee: 567.7 km
Apogee: 572.5 km
Inclination: 97.7 °
Period: 95.9 minutes
Semi major axis: 6941 km
RCS: Unknown
Launch date: July 22, 2022
Source: United States (US)
Launch site: AIR FORCE WESTERN TEST RANGE (AFWTR)
Your satellite tracking list
Your tracking list is empty




NASA's NSSDC Master Catalog

Two Line Element Set (TLE):
1 53214U 22084AB  23275.07372299  .00001646  00000-0  13267-3 0  9998
2 53214  97.6554 334.6053 0003456 198.8621 161.2476 15.01262665 66227
Source of the keplerian elements: AFSPC